Osoyoos, British Columbia

8:44 PM PDT on May 25, 2017 (GMT -0700)
Osoyoos

Weather History for CWYY - April, 2013

Change the Weather History Date:

Wednesday, April 3, 2013

  Actual Average (KOMK) Record (KOMK)
Temperature  
Mean Temperature 56 °F 47 °F  
Max Temperature 70 °F 60 °F 77 °F (1992)
Min Temperature 43 °F 35 °F 20 °F (1936)
Degree Days  
Heating Degree Days 8 18  
Month to date heating degree days 54  
Since 1 July heating degree days 5644  
Cooling Degree Days 0 0  
Month to date cooling degree days 0  
Year to date cooling degree days 0  
Growing Degree Days 6 (Base 50)    
Moisture  
Dew Point 35 °F    
Average Humidity 42    
Maximum Humidity 65    
Minimum Humidity 17    
Precipitation  
Precipitation 0.00 in 0.03 in 0.27 in (1948)
Month to date precipitation 0.09  
Year to date precipitation 4.58  
Sea Level Pressure  
Sea Level Pressure 30.02 in    
Wind  
Wind Speed 3 mph ()    
Max Wind Speed 6 mph    
Max Gust Speed -    
T = Trace of Precipitation, MM = Missing Value Source: Averaged Metar Reports

Daily Weather History Graph

Daily Weather History Graph

Search for Another Location

Airport or City:

Trip Planner

Search our weather history database for the weather conditions in past years. The results will help you decide how hot, cold, wet, or windy it might be!

Date:

Astronomy

Apr. 03, 2013 Rise Set
Actual Time 6:30 AM PDT 7:32 PM PDT
Civil Twilight 5:58 AM PDT 8:04 PM PDT
Nautical Twilight 5:19 AM PDT 8:43 PM PDT
Astronomical Twilight 4:38 AM PDT 9:25 PM PDT
Moon 2:48 AM PDT (4/3) 12:18 PM PDT (4/3)
Length of Visible Light 14h 06m
Length of Day
13h 02m
Last Quarter, 43% of the Moon is Illuminated
Apr 3
Last Quarter
Apr 10
New
Apr 18
First Quarter
Apr 25
Full
May 2
Last Quarter

Hourly Weather History & Observations

Time (PDT) Temp. Windchill Dew Point Humidity Pressure Visibility Wind Dir Wind Speed Gust Speed Precip Events Conditions
12:00 AM 54.0 °F - 32.0 °F 43% 30.00 in - South 1.2 mph - N/A   Unknown
1:00 AM 51.1 °F - 34.7 °F 54% 30.02 in - NE 2.3 mph - N/A   Unknown
2:00 AM 52.2 °F - 34.5 °F 51% 30.03 in - NE 4.6 mph - N/A   Unknown
3:00 AM 52.3 °F - 34.9 °F 51% 30.04 in - NNW 5.8 mph - N/A   Unknown
4:00 AM 52.9 °F - 31.3 °F 44% 30.05 in - NNW 4.6 mph - N/A   Unknown
5:00 AM 51 °F - 35 °F 41% 30.06 in - NNW 5.8 mph - -  
5:00 AM 51.3 °F - 34.5 °F 53% 30.06 in - NNW 5.8 mph - N/A   Unknown
6:00 AM 49.5 °F - 34.2 °F 56% 30.08 in - NNW 2.3 mph - N/A   Unknown
7:00 AM 46.2 °F 45.0 °F 33.6 °F 61% 30.10 in - SE 3.5 mph - N/A   Unknown
8:00 AM 49.3 °F - 37.8 °F 65% 30.11 in - SSE 1.2 mph - N/A   Unknown
9:00 AM 53.1 °F - 35.4 °F 51% 30.10 in - North 4.6 mph - N/A   Unknown
10:00 AM 56.5 °F - 36.7 °F 48% 30.09 in - North 4.6 mph - N/A   Unknown
11:00 AM 61 °F - 35 °F 26% 30.06 in - WNW 4.6 mph - -  
11:00 AM 61.3 °F - 34.9 °F 37% 30.06 in - WNW 4.6 mph - N/A   Unknown
12:00 PM 63.7 °F - 34.7 °F 34% 30.05 in - NW 3.5 mph - N/A   Unknown
1:00 PM 64.2 °F - 33.1 °F 31% 30.02 in - North 3.5 mph - N/A   Unknown
2:00 PM 67.3 °F - 33.4 °F 29% 30.01 in - SSW 3.5 mph - N/A   Unknown
3:00 PM 67.6 °F - 30.6 °F 25% 30.00 in - South 3.5 mph - N/A   Unknown
4:00 PM 70.0 °F - 34.0 °F 27% 29.97 in - South 5.8 mph - N/A   Unknown
5:00 PM 68 °F - 34 °F 17% 29.96 in - South 3.5 mph - -  
5:00 PM 68.0 °F - 33.6 °F 28% 29.96 in - South 3.5 mph - N/A   Unknown
6:00 PM 68.7 °F - 33.1 °F 27% 29.96 in - SSE 3.5 mph - N/A   Unknown
7:00 PM 65.1 °F - 34.7 °F 32% 29.95 in - ESE 3.5 mph - N/A   Unknown
8:00 PM 64.2 °F - 34.0 °F 32% 29.94 in - East 3.5 mph - N/A   Unknown
9:00 PM 56.8 °F - 38.7 °F 51% 29.96 in - North 3.5 mph - N/A   Unknown
10:00 PM 55.2 °F - 38.5 °F 53% 29.97 in - North 3.5 mph - N/A   Unknown
11:00 PM 53 °F - 38 °F 45% 29.97 in - North 1.2 mph - -  
11:00 PM 53.1 °F - 37.8 °F 56% 29.97 in - North 1.2 mph - N/A   Unknown